[[{"header":{"parameterUnit":"m.s-1","parameterCategory":1,"la1":30.2991,"la2":30.254,"lo1":-89.0895,"lo2":-89.0444,"dy":0.0017,"dx":0.0017,"nx":28,"ny":28,"refTime":"2023-08-04T21:00:00:Z","depth":0,"parameterNumber":2,"parameterNumberName":"U-component_of_WINDS"},"data":[0,0,0,0,0,0,0,0,0,0,0,0,0,0,0,0,0,0,0,0,0,0,0,0,0,0,0,0,0,0,0,0,0,0,0,0,0,0,0,0,0,0,0,0,0,0,0,0,0,0,0,0,0,0,0,0,0,0,3.0853,3.0853,0,3.0905,3.0905,3.0906,3.0914,3.0913,3.0913,3.0913,3.0967,3.0969,3.0971,0,0,0,0,0,0,0,0,0,0,0,0,0,3.0761,3.0763,3.0852,3.0853,3.0854,3.0905,3.0905,3.0906,3.0914,3.0913,3.0913,3.0912,3.0966,3.0969,3.0971,0,0,0,0,0,0,0,0,0,0,0,0,0,3.0806,3.0763,3.0852,3.0864,3.0865,3.0905,3.0905,3.0906,3.0914,3.0913,3.0913,3.0912,3.0966,3.0968,3.0971,3.1003,0,0,3.098,3.0981,0,0,0,0,0,0,0,0,3.0803,3.0809,3.0862,3.0863,3.0865,3.0902,3.0893,3.0939,3.0914,3.0896,3.0913,3.0912,3.0946,3.095,3.0962,3.1005,3.1008,3.098,3.0982,3.0983,3.0984,0,0,0,0,0,0,0,3.08,3.0807,3.0873,3.0862,3.0864,3.0867,3.0873,3.0902,3.0924,3.0897,3.0898,3.0904,3.0947,3.0959,3.0963,3.1008,3.098,3.0982,3.0984,3.0985,3.1083,3.1084,0,0,0,0,0,0,3.0795,3.0804,3.0872,3.0875,3.0832,3.0869,3.0875,3.0891,3.0924,3.0928,3.0905,3.0904,3.0955,3.096,3.0965,3.1006,3.0983,3.0986,3.0987,3.1082,3.1083,3.1084,0,0,0,0,0,0,3.0793,3.0801,3.0869,3.084,3.0849,3.0872,3.0889,3.0892,3.0905,3.0929,3.0934,3.0913,3.0954,3.0961,3.0994,3.1008,3.0987,3.0989,3.1081,3.1082,3.1084,3.1087,0,0,0,0,0,0,3.079,3.08,3.0812,3.084,3.085,3.0897,3.089,3.0894,3.0909,3.0909,3.0938,3.0942,3.0954,3.099,3.0997,3.1011,3.0992,3.108,3.1082,3.1083,3.1086,3.1088,3.109,0,0,0,0,0,3.0787,3.081,3.0812,3.082,3.0865,3.0897,3.0903,3.0916,3.091,3.0923,3.0939,3.0941,3.1005,3.0993,3.1001,3.1017,3.1079,3.1081,3.1083,3.1085,3.1088,3.109,0,0,0,0,0,0,3.0783,3.0814,3.0817,3.085,3.0871,3.0899,3.0915,3.0919,3.0942,3.0941,3.0956,3.0963,3.0995,3.1009,3.0995,3.105,3.1042,3.1045,3.104,3.1043,3.1045,3.1042,3.0994,0,0,0,0,0,3.0786,3.0809,3.0835,3.0862,3.0872,3.0892,3.0906,3.0914,3.0937,3.0946,3.0964,3.0987,3.1012,3.1028,3.1052,3.1087,3.1095,3.1103,3.1105,3.1107,3.111,3.1131,3.1136,3.1091,3.1091,3.1091,0,0,3.0792,3.0812,3.0826,3.0862,3.0879,3.0903,3.0899,3.0925,3.0943,3.095,3.0982,3.0997,3.1023,3.1057,3.1073,3.107,3.1124,3.1109,3.111,3.1113,3.1134,3.1138,3.1142,3.1092,3.1092,3.1092,0,0,3.0817,3.0833,3.0858,3.0876,3.0902,3.0915,3.0921,3.0949,3.0959,3.0992,3.0998,3.102,3.1063,3.1082,3.1097,3.113,3.1134,3.1138,3.115,3.1171,3.1174,3.1178,3.1191,3.1196,3.1141,3.1141,3.1141,0,3.0821,3.0858,3.0871,3.0896,3.0913,3.092,3.0946,3.0963,3.0996,3.1007,3.1003,3.1058,3.1075,3.1115,3.1124,3.1135,3.1144,3.1135,3.1173,3.1176,3.1179,3.1192,3.1197,3.1141,3.1141,3.1141,3.1141,0,3.0863,3.0888,3.0905,3.0938,3.0956,3.0982,3.0999,3.1016,3.1023,3.1037,3.1071,3.1093,3.1123,3.1133,3.1139,3.1174,3.1171,3.117,3.1162,3.1184,3.1197,3.1201,3.1142,3.1141,3.1141,3.1141,0,0,3.0886,3.0926,3.0932,3.0948,3.0978,3.0998,3.1025,3.1054,3.1069,3.1092,3.1116,3.1152,3.1151,3.1169,3.1178,3.1196,3.1223,3.1192,3.1193,3.1198,3.1265,3.1267,3.1272,3.1225,3.1226,3.1227,3.1263,0,3.0915,3.0963,3.0976,3.1017,3.1041,3.1049,3.1073,3.1094,3.1108,3.1132,3.1147,3.1174,3.1169,3.118,3.1198,3.1216,3.1237,3.1213,3.1249,3.125,3.1243,3.1278,3.128,3.1313,3.1268,3.1269,3.1269,0,3.0955,3.098,3.1023,3.1052,3.1062,3.1083,3.1112,3.1134,3.1159,3.1168,3.1188,3.1196,3.1225,3.1215,3.1257,3.1241,3.1256,3.1267,3.1269,3.1273,3.1262,3.1286,3.1324,3.133,3.1277,3.1276,3.1276,0,3.097,3.1013,3.1045,3.1058,3.1092,3.1107,3.1122,3.1146,3.1164,3.1189,3.1201,3.1229,3.1244,3.1267,3.1282,3.1273,3.1323,3.1314,3.1333,3.1333,3.1344,3.1343,3.1387,3.1352,3.1351,3.1351,3.1351,0,3.1002,3.1028,3.1052,3.1072,3.1103,3.1118,3.1148,3.1163,3.1185,3.1209,3.1217,3.1239,3.1258,3.1283,3.1296,3.1329,3.1336,3.1345,3.1348,3.1345,3.1344,3.1356,3.1355,3.1353,3.1352,3.1352,3.1352,0,3.1023,3.104,3.1076,3.1106,3.1114,3.1135,3.1161,3.1181,3.1195,3.1225,3.1233,3.1256,3.1286,3.1304,3.1342,3.135,3.1388,3.139,3.138,3.1381,3.14,3.1398,3.1454,3.1462,3.142,3.142,3.1421,0,3.1043,3.1064,3.1096,3.1113,3.1128,3.1154,3.1172,3.1188,3.1206,3.1238,3.1254,3.1285,3.131,3.1358,3.1379,3.1408,3.1412,3.1429,3.1416,3.1413,3.1414,3.1413,3.1416,3.1431,3.1432,3.1432,3.1432,0,3.1077,3.1085,3.111,3.1139,3.116,3.1184,3.1207,3.122,3.124,3.1261,3.1292,3.1312,3.1351,3.1382,3.1413,3.1429,3.1435,3.1436,3.1442,3.144,3.1434,3.1439,3.1387,3.1435,3.1435,3.1435,3.1434,3.1434,3.11,3.112,3.1145,3.1174,3.1193,3.1215,3.1236,3.1253,3.1279,3.1312,3.132,3.1353,3.138,3.1423,3.144,3.1466,3.1464,3.1472,3.1475,3.1477,3.1478,3.1429,3.1472,3.1472,3.1472,3.1472,3.1472,0,3.1136,3.1153,3.1179,3.1212,3.1235,3.1237,3.1264,3.1283,3.1312,3.1335,3.1361,3.1397,3.1427,3.1451,3.1482,3.1499,3.1503,3.1507,3.1506,3.1511,3.1478,3.147,3.1504,3.1504,3.1504,3.1504,3.1504,3.1504,3.1157,3.1191,3.1202,3.1246,3.1263,3.1296,3.1311,3.1332,3.1351,3.1391,3.1417,3.1431,3.1456,3.1489,3.1517,3.1523,3.1535,3.154,3.1546,3.1516,3.1513,3.1509,3.1502,3.1542,3.1542,3.1577,3.1577,3.1577]},{"header":{"parameterUnit":"m.s-1","parameterCategory":1,"la1":30.2991,"la2":30.254,"lo1":-89.0895,"lo2":-89.0444,"dy":0.0017,"dx":0.0017,"nx":28,"ny":28,"refTime":"2023-08-04T21:00:00:Z","depth":0,"parameterNumber":3,"parameterNumberName":"V-component_of_WINDS"},"data":[0,0,0,0,0,0,0,0,0,0,0,0,0,0,0,0,0,0,0,0,0,0,0,0,0,0,0,0,0,0,0,0,0,0,0,0,0,0,0,0,0,0,0,0,0,0,0,0,0,0,0,0,0,0,0,0,0,0,-0.9396,-0.9397,0,-0.9445,-0.9445,-0.9446,-0.9465,-0.9465,-0.9465,-0.9465,-0.9515,-0.9517,-0.9518,0,0,0,0,0,0,0,0,0,0,0,0,0,-0.9321,-0.9322,-0.9396,-0.9397,-0.9397,-0.9445,-0.9446,-0.9446,-0.9465,-0.9465,-0.9465,-0.9464,-0.9515,-0.9516,-0.9518,0,0,0,0,0,0,0,0,0,0,0,0,0,-0.936,-0.9323,-0.9396,-0.9412,-0.9414,-0.9445,-0.9446,-0.9446,-0.9465,-0.9465,-0.9465,-0.9464,-0.9514,-0.9516,-0.9518,-0.9536,0,0,-0.9525,-0.9526,0,0,0,0,0,0,0,0,-0.9358,-0.9363,-0.9409,-0.9411,-0.9414,-0.9449,-0.9438,-0.9477,-0.9465,-0.9446,-0.9465,-0.9464,-0.9493,-0.9497,-0.9507,-0.9539,-0.9541,-0.9525,-0.9527,-0.9528,-0.9528,0,0,0,0,0,0,0,-0.9355,-0.9361,-0.9415,-0.941,-0.9413,-0.9418,-0.9423,-0.9445,-0.947,-0.9447,-0.9449,-0.9454,-0.9494,-0.9505,-0.9508,-0.9542,-0.9525,-0.9527,-0.9529,-0.953,-0.9593,-0.9593,0,0,0,0,0,0,-0.9349,-0.9358,-0.9414,-0.9417,-0.9385,-0.9419,-0.9425,-0.9438,-0.947,-0.9475,-0.9455,-0.9455,-0.9501,-0.9506,-0.951,-0.9534,-0.9528,-0.953,-0.9531,-0.9592,-0.9593,-0.9593,0,0,0,0,0,0,-0.9348,-0.9354,-0.9412,-0.9388,-0.9396,-0.9421,-0.9434,-0.9439,-0.9449,-0.9475,-0.948,-0.946,-0.9501,-0.9507,-0.953,-0.9536,-0.9531,-0.9533,-0.9592,-0.9593,-0.9593,-0.9582,0,0,0,0,0,0,-0.9345,-0.9353,-0.936,-0.9388,-0.9397,-0.943,-0.9435,-0.944,-0.9453,-0.9454,-0.9482,-0.9486,-0.9501,-0.9527,-0.9532,-0.9539,-0.9535,-0.9592,-0.9592,-0.9593,-0.9582,-0.9582,-0.9583,0,0,0,0,0,-0.9343,-0.9355,-0.936,-0.9367,-0.9406,-0.9431,-0.9436,-0.9453,-0.9453,-0.946,-0.9478,-0.9485,-0.9535,-0.9529,-0.9535,-0.9543,-0.9591,-0.9592,-0.9593,-0.9582,-0.9582,-0.9583,0,0,0,0,0,0,-0.9326,-0.9358,-0.9365,-0.9386,-0.9406,-0.9434,-0.9443,-0.9452,-0.9472,-0.9472,-0.9492,-0.9498,-0.952,-0.9534,-0.9527,-0.9563,-0.9564,-0.9566,-0.9553,-0.9554,-0.9554,-0.955,-0.9536,0,0,0,0,0,-0.9325,-0.9342,-0.937,-0.9386,-0.9395,-0.9418,-0.9429,-0.9441,-0.9462,-0.947,-0.9489,-0.9509,-0.953,-0.9542,-0.9562,-0.9584,-0.9592,-0.9593,-0.9593,-0.9593,-0.9595,-0.9609,-0.9611,-0.9596,-0.9596,-0.9596,0,0,-0.9323,-0.9343,-0.9352,-0.9383,-0.94,-0.9418,-0.9424,-0.9443,-0.9457,-0.9473,-0.9496,-0.9511,-0.9535,-0.9558,-0.9569,-0.957,-0.9601,-0.9594,-0.9594,-0.9596,-0.961,-0.9612,-0.9613,-0.9596,-0.9596,-0.9596,0,0,-0.9328,-0.9344,-0.936,-0.9377,-0.9402,-0.9417,-0.9421,-0.9448,-0.9459,-0.9482,-0.9495,-0.9513,-0.9546,-0.9564,-0.9577,-0.9591,-0.96,-0.9597,-0.9598,-0.9612,-0.9613,-0.9614,-0.962,-0.9622,-0.9599,-0.9599,-0.9599,0,-0.9322,-0.935,-0.9367,-0.9386,-0.94,-0.9415,-0.9432,-0.9448,-0.9478,-0.9488,-0.9488,-0.9533,-0.955,-0.9578,-0.9582,-0.9591,-0.9598,-0.9594,-0.9611,-0.9613,-0.9614,-0.962,-0.9622,-0.9598,-0.9598,-0.9598,-0.9598,0,-0.9342,-0.9361,-0.9371,-0.94,-0.9415,-0.9433,-0.9454,-0.9467,-0.9478,-0.9493,-0.9518,-0.954,-0.9565,-0.9573,-0.9583,-0.9603,-0.9603,-0.9607,-0.9608,-0.9615,-0.9621,-0.9623,-0.9598,-0.9598,-0.9598,-0.9598,0,0,-0.9337,-0.9377,-0.938,-0.9395,-0.9424,-0.944,-0.9459,-0.9484,-0.9495,-0.9516,-0.9533,-0.9563,-0.9568,-0.9583,-0.9595,-0.9607,-0.9619,-0.961,-0.9611,-0.9612,-0.9644,-0.9641,-0.9643,-0.9625,-0.9625,-0.9625,-0.9642,0,-0.9347,-0.9381,-0.9399,-0.9426,-0.9445,-0.9461,-0.9477,-0.9498,-0.9513,-0.9532,-0.9549,-0.957,-0.9574,-0.9583,-0.9596,-0.9614,-0.9625,-0.9613,-0.9642,-0.9642,-0.9635,-0.9646,-0.9643,-0.9657,-0.9644,-0.9645,-0.9645,0,-0.9362,-0.9384,-0.9413,-0.9442,-0.945,-0.9465,-0.9491,-0.9508,-0.9532,-0.9543,-0.956,-0.9573,-0.9595,-0.9594,-0.9626,-0.9617,-0.963,-0.9641,-0.9642,-0.9646,-0.9644,-0.9651,-0.9662,-0.9664,-0.9649,-0.9649,-0.9648,0,-0.9357,-0.9393,-0.9416,-0.9427,-0.9461,-0.9472,-0.9486,-0.951,-0.9525,-0.9547,-0.9557,-0.9582,-0.9595,-0.9615,-0.9634,-0.9632,-0.9664,-0.9665,-0.9674,-0.9674,-0.968,-0.9679,-0.9694,-0.9687,-0.9687,-0.9687,-0.9687,0,-0.9367,-0.9384,-0.9414,-0.9428,-0.9449,-0.9469,-0.9489,-0.9505,-0.9527,-0.9545,-0.956,-0.9577,-0.9601,-0.9621,-0.9637,-0.9661,-0.9667,-0.9677,-0.9681,-0.9676,-0.9675,-0.9684,-0.9684,-0.9688,-0.9688,-0.9688,-0.9687,0,-0.9364,-0.9385,-0.941,-0.9441,-0.9449,-0.9463,-0.949,-0.9505,-0.9521,-0.9544,-0.9551,-0.9577,-0.9602,-0.9623,-0.9655,-0.9666,-0.9691,-0.9696,-0.9683,-0.9685,-0.9694,-0.9693,-0.9716,-0.9721,-0.971,-0.971,-0.971,0,-0.9369,-0.9383,-0.9415,-0.9428,-0.9443,-0.9464,-0.9479,-0.9501,-0.9516,-0.9546,-0.9557,-0.9583,-0.9605,-0.9644,-0.9667,-0.9692,-0.9698,-0.9704,-0.9701,-0.9697,-0.9699,-0.9698,-0.97,-0.9704,-0.9704,-0.9704,-0.9704,0,-0.9375,-0.9385,-0.9406,-0.9432,-0.945,-0.9471,-0.9492,-0.9502,-0.9528,-0.9545,-0.957,-0.9587,-0.9621,-0.9647,-0.9675,-0.9692,-0.9703,-0.9705,-0.9709,-0.9704,-0.9696,-0.9701,-0.9684,-0.9704,-0.9704,-0.9704,-0.9704,-0.9704,-0.9377,-0.9391,-0.9416,-0.944,-0.9459,-0.9479,-0.9495,-0.9514,-0.9535,-0.9565,-0.9576,-0.9603,-0.9629,-0.9668,-0.9684,-0.9706,-0.9708,-0.9712,-0.9714,-0.9715,-0.9715,-0.9692,-0.9711,-0.9711,-0.9711,-0.9711,-0.9711,0,-0.9385,-0.9403,-0.9424,-0.9454,-0.9473,-0.9482,-0.9507,-0.9522,-0.9546,-0.9569,-0.959,-0.9621,-0.9647,-0.9672,-0.9699,-0.9712,-0.9718,-0.9718,-0.9718,-0.9722,-0.9711,-0.9706,-0.9713,-0.9713,-0.9713,-0.9713,-0.9713,-0.9713,-0.9391,-0.9416,-0.9429,-0.9463,-0.9481,-0.9507,-0.9521,-0.954,-0.9559,-0.9592,-0.9614,-0.963,-0.9655,-0.9684,-0.9709,-0.9716,-0.9725,-0.9725,-0.9733,-0.9723,-0.9722,-0.9722,-0.9717,-0.9727,-0.9727,-0.9742,-0.9742,-0.9742]}]]